Paganella, Italy

4:32 AM CEST on April 26, 2018 (GMT +0200)
Paganella

Weather History for LIVP - April, 2014

Change the Weather History Date:

Monday, April 28, 2014

  Actual Average Record
Temperature  
Mean Temperature 33 °F -  
Max Temperature 35 °F 43 °F 53 °F (2007)
Min Temperature 31 °F 33 °F 17 °F (2016)
Degree Days  
Heating Degree Days 32    
Moisture  
Dew Point 33 °F    
Average Humidity 99    
Maximum Humidity 100    
Minimum Humidity 97    
Precipitation  
Precipitation 0.12 in 0.09 in - ()
Sea Level Pressure  
Sea Level Pressure 29.70 in    
Wind  
Wind Speed 7 mph ()    
Max Wind Speed 12 mph    
Max Gust Speed -    
Visibility 0.0 miles    
Events Fog , Snow    
Averages and records for this station are not official NWS values.
T = Trace of Precipitation, MM = Missing Value Source: Averaged Metar Reports

Daily Weather History Graph

Daily Weather History Graph

Search for Another Location

Airport or City:

Astronomy

Apr. 28, 2014 Rise Set
Actual Time 6:07 AM CEST 8:20 PM CEST
Civil Twilight 5:34 AM CEST 8:52 PM CEST
Nautical Twilight 4:54 AM CEST 9:33 PM CEST
Astronomical Twilight 4:08 AM CEST 10:19 PM CEST
Moon 5:39 AM CEST (4/28) 7:37 PM CEST (4/28)
Length of Visible Light 15h 18m
Length of Day
14h 12m
Waning Crescent, 1% of the Moon is Illuminated
Apr 28
Waning Crescent
Apr 29
New
May 7
First Quarter
May 14
Full
May 21
Last Quarter

Hourly Weather History & Observations

Time (CEST) Temp. Windchill Dew Point Humidity Pressure Visibility Wind Dir Wind Speed Gust Speed Precip Events Conditions
12:00 AM 33 °F - 33 °F 100%  in 0 mi North 5.8 mph - - Fog Heavy Fog
12:55 AM 33.8 °F 27.7 °F 33.8 °F 100% 29.68 in 0.0 mi North 6.9 mph - N/A Fog Fog
1:00 AM 33 °F - 33 °F 100%  in 0 mi North 6.9 mph - - Fog Heavy Fog
1:55 AM 32.0 °F 25.6 °F 32.0 °F 100% 29.68 in 0.0 mi North 6.9 mph - N/A Fog Fog
2:00 AM 33 °F - 33 °F 98%  in 0 mi North 6.9 mph - - Fog Heavy Fog
2:55 AM 32.0 °F 27.5 °F 32.0 °F 100% 29.68 in 0.0 mi North 4.6 mph - N/A Fog Fog
3:00 AM 32 °F - 32 °F 100%  in 0 mi North 4.6 mph - - Fog Heavy Fog
3:55 AM 32.0 °F 26.4 °F 32.0 °F 100% 29.65 in 0.0 mi North 5.8 mph - N/A Fog Fog
4:00 AM 32 °F - 32 °F 100%  in 0 mi North 5.8 mph - - Fog Heavy Fog
4:55 AM 32.0 °F 26.4 °F 32.0 °F 100% 29.65 in 0.0 mi North 5.8 mph - N/A Fog Fog
5:00 AM 32 °F - 32 °F 100%  in 0 mi North 5.8 mph - - Fog Heavy Fog
5:55 AM 32.0 °F 24.2 °F 32.0 °F 100% 29.65 in 0.0 mi North 9.2 mph - N/A Fog Light Freezing Fog
6:00 AM 32 °F - 32 °F 98%  in 0 mi North 9.2 mph - - Fog Heavy Fog
6:55 AM 32.0 °F 23.6 °F 32.0 °F 100% 29.65 in - North 10.4 mph - N/A Fog Light Freezing Fog
7:00 AM 32 °F - 32 °F 98%  in 0 mi North 10.4 mph - - Snow Light Snow
7:55 AM 32.0 °F 24.2 °F 32.0 °F 100% 29.68 in - North 9.2 mph - N/A Fog Light Freezing Fog
8:00 AM 32 °F - 32 °F 98%  in 0 mi North 9.2 mph - - Snow Light Snow
8:55 AM 32.0 °F 23.0 °F 32.0 °F 100% 29.68 in - North 11.5 mph - N/A Fog Light Freezing Fog
9:00 AM 32 °F - 32 °F 98%  in 0 mi North 11.5 mph - - Snow Light Snow
9:55 AM 32.0 °F 24.2 °F 32.0 °F 100% 29.68 in - North 9.2 mph - N/A Fog Light Freezing Fog
10:00 AM 32 °F - 32 °F 98%  in 0 mi North 9.2 mph - - Snow Light Snow
10:55 AM 33.8 °F 25.3 °F 33.8 °F 100% 29.71 in 0.0 mi North 11.5 mph - N/A Fog Fog
11:00 AM 33 °F - 33 °F 100%  in 0 mi North 11.5 mph - - Fog Heavy Fog
11:55 AM 33.8 °F 25.3 °F 33.8 °F 100% 29.71 in - NNE 11.5 mph - N/A Fog Fog
12:00 PM 33 °F - 33 °F 100%  in 0 mi NNE 11.5 mph - - Snow Light Snow
12:55 PM 33.8 °F 25.3 °F 33.8 °F 100% 29.71 in - NNE 11.5 mph - N/A Fog Fog
1:00 PM 33 °F - 33 °F 100%  in 0 mi NNE 11.5 mph - - Snow Light Snow
1:55 PM 33.8 °F 25.3 °F 33.8 °F 100% 29.71 in - NNE 11.5 mph - N/A Fog Fog
2:00 PM 34 °F - 34 °F 99%  in 0 mi NNE 11.5 mph - - Snow Light Snow
2:55 PM 33.8 °F 27.0 °F 33.8 °F 100% 29.71 in - NNE 8.1 mph - N/A Fog Fog
3:00 PM 34 °F - 34 °F 100%  in 0 mi NNE 8.1 mph - - Snow Light Snow
3:55 PM 33.8 °F 27.7 °F 33.8 °F 100% 29.71 in - NNE 6.9 mph - N/A Fog Fog
4:00 PM 34 °F - 34 °F 100%  in 0 mi NNE 6.9 mph - - Snow Light Snow
4:55 PM 33.8 °F 29.6 °F 33.8 °F 100% 29.71 in 0.2 mi North 4.6 mph - N/A Fog , Snow Light Snow
5:00 PM 34 °F - 33 °F 97%  in 0 mi North 4.6 mph - - Snow Light Snow
5:55 PM 33.8 °F 29.6 °F 33.8 °F 100% 29.71 in - NNE 4.6 mph - N/A Fog Fog
6:00 PM 34 °F - 34 °F 100%  in 0 mi NNE 4.6 mph - - Snow Light Snow
6:55 PM 33.8 °F 27.7 °F 33.8 °F 100% 29.71 in - NNE 6.9 mph - N/A Fog Fog
7:00 PM 35 °F - 35 °F 97%  in 0 mi NNE 6.9 mph - - Snow Light Snow
8:00 PM 35 °F - 35 °F 97%  in 0 mi North 6.9 mph - - Snow Light Snow
8:55 PM 33.8 °F 27.7 °F 33.8 °F 100% 29.71 in - North 6.9 mph - N/A Fog Fog
9:00 PM 35 °F - 35 °F 97%  in 0 mi North 6.9 mph - - Snow Light Snow
9:55 PM 33.8 °F 29.6 °F 33.8 °F 100% 29.74 in - North 4.6 mph - N/A Fog Fog
10:00 PM 35 °F - 35 °F 97%  in 0 mi North 4.6 mph - - Snow Light Snow
10:55 PM 35.6 °F 27.5 °F 35.6 °F 100% 29.74 in - North 11.5 mph - N/A Fog Fog
11:00 PM 35 °F - 35 °F 100%  in 0 mi North 11.5 mph - - Snow Light Snow
11:55 PM 35.6 °F 28.6 °F 35.6 °F 100% 29.74 in - North 9.2 mph - N/A Fog Fog